EDT,Max TemperatureF,Mean TemperatureF,Min TemperatureF,Max Dew PointF,MeanDew PointF,Min DewpointF,Max Humidity, Mean Humidity, Min Humidity, Max Sea Level PressureIn, Mean Sea Level PressureIn, Min Sea Level PressureIn, Max VisibilityMiles, Mean VisibilityMiles, Min VisibilityMiles, Max Wind SpeedMPH, Mean Wind SpeedMPH, Max Gust SpeedMPH,PrecipitationIn, CloudCover, Events, WindDirDegrees
2013-3-1,30,26,21,27,21,16,86,81,74,29.94,29.81,29.65,10,8,2,14,11,21,0.00,8,Snow,320
2013-3-2,21,20,19,16,15,12,86,80,74,29.92,29.86,29.77,10,6,2,16,9,17,0.00,8,Snow,319
2013-3-3,21,19,17,14,13,12,84,77,68,29.91,29.82,29.74,10,4,1,22,11,28,0.00,8,Snow,308
2013-3-4,23,19,15,18,13,10,85,77,71,30.06,29.94,29.81,10,5,1,23,15,30,0.00,8,Snow,303
2013-3-5,33,26,19,20,18,17,89,74,59,30.09,30.01,29.92,10,10,8,12,7,,0.00,4,,100
2013-3-6,36,30,24,26,23,19,82,73,57,30.12,30.00,29.86,10,10,10,10,7,17,0.00,7,,62
2013-3-7,35,30,26,27,25,21,89,80,56,30.25,30.15,30.05,10,8,2,10,5,30,0.00,8,Snow,344
2013-3-8,36,31,26,23,20,17,86,71,48,30.42,30.28,30.16,10,9,2,22,10,29,0.01,6,Snow,344
2013-3-9,46,34,21,24,20,18,89,59,33,30.41,30.35,30.26,10,10,10,9,4,,0.00,0,,149
2013-3-10,57,47,37,23,20,15,48,32,24,30.24,30.14,30.06,10,10,10,16,10,25,0.00,2,,175
2013-3-11,53,49,46,43,27,20,83,46,34,30.06,29.90,29.73,10,10,7,28,13,45,0.04,6,Rain,168
2013-3-12,48,39,30,45,33,26,93,84,70,29.93,29.80,29.72,10,7,0,20,11,34,0.34,8,Fog-Rain-Snow,273
2013-3-13,35,26,19,27,20,12,86,74,60,29.98,29.85,29.78,10,5,0,29,11,37,0.06,7,Fog-Snow,271
2013-3-14,27,22,17,16,12,8,86,71,49,30.08,29.96,29.87,10,5,1,29,18,40,0.00,7,Snow,302
2013-3-15,33,26,19,27,22,13,86,78,69,30.06,29.82,29.70,10,6,2,24,13,33,0.00,7,Snow,272
2013-3-16,28,24,21,23,19,16,86,79,74,29.96,29.79,29.69,10,7,1,9,6,,0.01,8,Snow,31
2013-3-17,30,24,17,16,14,9,86,71,43,30.31,30.12,29.93,10,9,3,15,9,21,0.01,5,Snow,321
2013-3-18,30,22,16,25,18,11,93,80,53,30.30,29.98,29.72,10,5,0,25,14,41,0.14,6,Fog-Rain-Snow,143
2013-3-19,34,27,21,29,22,12,93,78,54,29.84,29.71,29.64,10,5,0,21,12,32,0.06,8,Fog-Rain-Snow,255
2013-3-20,28,22,17,19,16,9,88,79,58,29.88,29.78,29.72,10,4,0,20,12,28,0.04,7,Fog-Snow,271
2013-3-21,21,18,14,18,11,5,86,75,53,29.84,29.72,29.66,10,6,0,16,8,24,0.00,7,Snow,271
2013-3-22,27,23,19,18,16,14,81,76,63,29.97,29.82,29.69,10,7,2,22,14,29,0.00,8,Snow,279
2013-3-23,30,26,21,21,19,17,86,76,59,30.02,29.94,29.86,10,8,2,17,12,29,0.00,8,Snow,292
2013-3-24,35,28,21,20,18,16,86,68,46,30.01,29.87,29.69,10,10,10,16,7,17,0.00,3,Snow,28
2013-3-25,34,30,26,27,24,18,93,81,66,29.73,29.59,29.51,10,5,1,9,6,20,0.07,8,Snow,55
2013-3-26,41,32,24,28,23,19,93,73,45,29.98,29.84,29.67,10,9,2,18,8,28,0.00,7,Snow,300
2013-3-27,37,31,26,28,25,20,86,77,65,30.09,30.00,29.91,10,8,2,18,12,25,0.01,7,Snow,286
2013-3-28,36,32,28,27,26,23,93,82,61,30.24,30.09,29.99,10,8,2,13,9,17,0.01,8,Snow,310
2013-3-29,44,36,30,28,25,20,86,70,46,30.23,30.19,30.15,10,10,5,16,8,22,0.00,6,Snow,288
2013-3-30,46,36,26,24,19,15,75,50,31,30.22,30.17,30.09,10,10,10,10,6,17,0.00,1,,277
2013-3-31,48,42,36,37,31,15,93,73,38,30.07,29.78,29.65,10,9,6,16,7,26,0.12,5,Rain,197